THORAD DELTA 1 DEB, 8139

Orbit data source: Space-Track

THORAD DELTA 1 DEB, 8139 is space debris in SSO originally from a launch on Fri, 15 Nov 1974 UTC launched from the Air Force Western Test Range (AFWTR). Debris objects in space refer to the collection of defunct objects orbiting the Earth. Examples of debris include non-operational satellites, rocket bodies, and fragments generated from explosions, collisions, or faulty payload assembly.

Loading next visibility...
Identifier
8139, 1974-089H
Orbit
SSO
Country
Flag of USUS
Related business
Manufacturer
Unknown
Mission
Spacecraft
Bus & Motor
Unknown
Mass
Unknown
Launch date (UTC)
1974-11-15 (51 years ago)
Launch vehicle
Unknown
Launch site
Air Force Western Test Range (AFWTR)
Object type
Payload
Rocket body
Debris
Shape & HBR
Unknown shape, 0.5 m
Radar Cross Section
Medium (>0.1 m² and <1 m²)

Expand to show TLE details & history
Last TLE update: 11 hours ago

TLE from 11 hours ago
0 THORAD DELTA 1 DEB
1  8139U 74089H   26062.86293022  .00000007  00000-0  29467-3 0  9995
2  8139 101.6050  27.9404 0049583 221.3230 159.8500 12.61940832361828
Epoch: 2026-03-03T20:42Z
TLE epoch observation values (Epoch: 2026-03-03T20:42:37.171Z)
Latitude
20.91937°
Longitude
-88.83054°
Altitude
1,453.537 km
Speed
7.121 km/s
True Right ascension
01h 33m 50s
True Declination
20° 48' 54"
Sunlit
Object was in daylight at epoch
Visualization orbit readout
Latitude
Unknown
Longitude
Unknown
Altitude
Unknown
Speed
Unknown
Apparent Right ascension
Unknown
Apparent Declination
Unknown
Sunlit
N/A
Visualization observer readout
Local Sidereal Time
11:35:04
Azimuth
Unknown
Elevation
Unknown
Doppler factor
Unknown
Orbital elements
Apogee altitude
1,451.095 km
Perigee altitude
1,373.838 km
Semi-major axis
7,790.603 km
Eccentricity
0.00496
Inclination
101.605°
RAAN
27.9404°
Arg. of periapsis
221.323°
True anomaly
160.04459°
Mean anomaly
159.85°
Eccentric anomaly
159.94741°
Mean motion
3.15636 °/min
Orbital period
114.06 mins
BSTAR
0.00029467

Documentation

Showing up to 5 results
|